Regional Weather Roundup
Issued by NWS

Home | Current Version | Previous Version | Text Only | Print | Product List | Glossary Off
Versions: 1 2 3 4 5 6 7 8 9 10 11 12 13 14 15 16 17 18 19 20 21 22 23 24 25 26 27 28 29 30 31 32 33 34 35 36 37 38 39 40 41 42 43 44 45 46 47 48 49 50

000
ASUS44 KMEG 261300
RWRTN
TENNESSEE HOURLY STATE WEATHER ROUNDUP
NATIONAL WEATHER SERVICE MEMPHIS TN
800 AM CDT MON SEP 26 2016

TNZ002-004-019-021-049-052-054-088>092-261400-
WEST TENNESSEE

CITY           SKY/WX    TMP DP  RH WIND       PRES   REMARKS
MEMPHIS INTL   PTSUNNY   68  60  75 NE17G23   30.10R
NWS MEMPHIS      N/A     67 N/A N/A MISG        N/A
JACKSON        CLOUDY   N/A N/A N/A N12       30.10R
DYERSBURG      CLOUDY   N/A N/A N/A MISG      30.14R THUNDER
PARIS          MOSUNNY   61  55  82 N13       30.14R
$$

TNZ008-025-027-028-033-062-065-066-261400-
NORTH MIDDLE TENNESSEE

CITY           SKY/WX    TMP DP  RH WIND       PRES   REMARKS
NASHVILLE      CLOUDY    72  67  84 NW7       30.06R
CLARKSVILLE    CLOUDY    66  55  67 NW15      30.11R
SMYRNA         CLOUDY    69  66  90 NW3       30.06R
COOKEVILLE     SUNNY     73  66  78 S6        30.04R
CROSSVILLE     SUNNY     70  62  76 NW3       30.11R
$$

TNZ061-075-076-078-094-096-097-261400-
SOUTH MIDDLE TENNESSEE

CITY           SKY/WX    TMP DP  RH WIND       PRES   REMARKS
SHELBYVILLE    MOSUNNY   73  68  83 CALM      30.04S
$$

TNZ017-018-042-046-047-261400-
NORTHEAST TENNESSEE

CITY           SKY/WX    TMP DP  RH WIND       PRES   REMARKS
TRI CITIES     MOSUNNY   70  65  84 CALM      30.09R
$$

TNZ012-013-036-069-073-074-261400-
CENTRAL EAST TENNESSEE

CITY           SKY/WX    TMP DP  RH WIND       PRES   REMARKS
KNOXVILLE      NOT AVBL
OAK RIDGE      SUNNY     76  64  66 CALM      30.08R
GATLINBURG     SUNNY     68  63  83 CALM      30.06S
$$

TNZ083-085-099-261400-
SOUTHEAST TENNESSEE

CITY           SKY/WX    TMP DP  RH WIND       PRES   REMARKS
CHATTANOOGA    MOSUNNY   74  63  68 S6        30.07R
$$

SKY/WX REPORTED AS FAIR MEANS FEW OR NO CLOUDS BELOW
12 THOUSAND FEET.





USA.gov is the U.S. government's official web portal to all federal, state and local government web resources and services.